Regional Weather Roundup
Issued by NWS

Home | Current Version | Previous Version | Text Only | Print | Product List | Glossary Off
Versions: 1 2 3 4 5 6 7 8 9 10 11 12 13 14 15 16 17 18 19 20 21 22 23 24 25 26 27 28 29 30 31 32 33 34 35 36 37 38 39 40 41 42 43 44 45 46 47 48 49 50

000
ASUS45 KABQ 282301
RWRNM
NEW MEXICO REGIONAL WEATHER ROUNDUP
NATIONAL WEATHER SERVICE ALBUQUERQUE NM
500 PM MDT THU MAY 28 2015

NOTE: "FAIR" MEANS FEW OR NO CLOUDS BELOW 12,000 FEET AGL WITH NO
       SIGNIFICANT WEATHER OR OBSTRUCTIONS TO VISION.

      THIS PRODUCT IS RELEASED AS TWO VERSIONS.  ONE VERSION NEAR
      THE TOP OF THE HOUR CONTAINING PRELIMINARY DATA FROM ALBUQUERQUE
      AND OTHER STATIONS.  A FINAL VERSION WITH ADDITIONAL DATA IS
      ISSUED ABOUT 10 MINUTES AFTER THE HOUR.

NMZ501-503-504-510>518-290000-
NORTHWEST PLATEAU/NORTHCENTRAL MOUNTAINS

CITY           SKY/WX    TMP DP  RH WIND       PRES   REMARKS
FARMINGTON     SUNNY     79  30  16 W17G23    30.03F
SANTA FE       SUNNY     79  20  11 W17G23    30.04F
TAOS           MOSUNNY   72  23  16 W14G26    30.10R
ANGEL FIRE     FAIR      65  26  22 W26G40    30.14F

$$
NMZ402-403-502-505>509-290000-
WESTCENTRAL MOUNTAINS/SOUTHWEST MOUNTAINS

CITY           SKY/WX    TMP DP  RH WIND       PRES   REMARKS
GALLUP         SUNNY     77  19  11 W13G18    30.11F
GRANTS         SUNNY     79  12   8 W9G26     30.11F
SILVER CITY      N/A     84  14   7 NW16G22   30.06F

$$
NMZ407-409-411-412-290000-
SOUTHERN DESERTS

CITY           SKY/WX    TMP DP  RH WIND       PRES   REMARKS
DEMING         SUNNY     90  16   6 W14G22    29.96F
HOLLOMAN AFB   SUNNY     91  12   5 W15       29.89F
ALAMOGORDO     SUNNY     91  14   6 W7G18     29.92F
T OR C         MOSUNNY   89  18   7 S13       29.94F

$$
NMZ519>523-290000-
CENTRAL VALLEYS/CENTRAL HIGHLANDS

CITY           SKY/WX    TMP DP  RH WIND       PRES   REMARKS
ALBUQUERQUE    MOSUNNY   84  21  10 W16G26    29.98F
DOUBLE EAGLE   MOSUNNY   82  25  12 W16       30.03F
MORIARTY ARPT  FAIR      80  20  10 W15G25    30.06F
CLINES CORNERS SUNNY     75  19  12 W24G36    30.08F
BELEN          FAIR      84  23  10 SE5       29.97F
SOCORRO        NOT AVBL

$$
NMZ524>526-539-540-290000-
SOUTHCENTRAL MOUNTAINS

CITY           SKY/WX    TMP DP  RH WIND       PRES   REMARKS
RUIDOSO        NOT AVBL

$$
NMZ527>531-290000-
NORTHEAST HIGHLANDS/NORTHEAST PLAINS

CITY           SKY/WX    TMP DP  RH WIND       PRES   REMARKS
LAS VEGAS      SUNNY     76  23  14 W21G31    30.04F
RATON          MOSUNNY   78  29  16 NW18G32   29.96F
CLAYTON        CLOUDY    59  49  69 N5        29.96R

$$
NMZ532>537-290000-
EASTCENTRAL PLAINS

CITY           SKY/WX    TMP DP  RH WIND       PRES   REMARKS
TUCUMCARI      CLOUDY    74  60  61 SE23      29.88S
CANNON AFB     TSTM      61  59  94 S18G33    29.97S FOG
CLOVIS AIRPORT CLOUDY    61  55  82 SE16        N/A

$$
NMZ028-029-538-290000-
SOUTHEAST PLAINS

CITY           SKY/WX    TMP DP  RH WIND       PRES   REMARKS
ROSWELL        PTSUNNY   88  54  31 SE16      29.86F
ARTESIA        CLOUDY    84  59  42 SE23      29.86F
CARLSBAD       CLOUDY    81  59  47 S18       29.85F
HOBBS          MOSUNNY   73  68  83 SE12      29.95R


$$



USA.gov is the U.S. government's official web portal to all federal, state and local government web resources and services.